Alexandria, Egypt

8:06 AM EET on March 23, 2017 (GMT +0200)
Alexandria International

Weather History for HEAX - February, 2013

Change the Weather History Date:

Tuesday, February 26, 2013

  Actual Average Record
Temperature  
Mean Temperature 60 °F -  
Max Temperature 70 °F 66 °F 75 °F (2001)
Min Temperature 50 °F 51 °F 42 °F (2009)
Degree Days  
Heating Degree Days 5    
Growing Degree Days 10 (Base 50)    
Moisture  
Dew Point 55 °F    
Average Humidity 83    
Maximum Humidity 100    
Minimum Humidity 47    
Precipitation  
Precipitation 0.00 in 0.02 in - ()
Sea Level Pressure  
Sea Level Pressure 30.05 in    
Wind  
Wind Speed 3 mph ()    
Max Wind Speed 7 mph    
Max Gust Speed -    
Visibility 3.3 miles    
Events      
Averages and records for this station are not official NWS values.
T = Trace of Precipitation, MM = Missing Value Source: Averaged Metar Reports

Daily Weather History Graph

Daily Weather History Graph

Search for Another Location

Airport or City:

Trip Planner

Search our weather history database for the weather conditions in past years. The results will help you decide how hot, cold, wet, or windy it might be!

Date:

Astronomy

Feb. 26, 2013 Rise Set
Actual Time 6:30 AM EET 5:56 PM EET
Civil Twilight 6:05 AM EET 6:20 PM EET
Nautical Twilight 5:37 AM EET 6:48 PM EET
Astronomical Twilight 5:09 AM EET 7:16 PM EET
Moon 6:44 PM EET (2/26) 6:27 AM EET (2/26)
Length of Visible Light 12h 14m
Length of Day
11h 25m
Full, 100% of the Moon is Illuminated
Feb 26
Full
Mar 4
Last Quarter
Mar 11
New
Mar 19
First Quarter
Mar 27
Full

Hourly Weather History & Observations

Time (EET) Temp. Dew Point Humidity Pressure Visibility Wind Dir Wind Speed Gust Speed Precip Events Conditions
12:00 AM 59.0 °F 57.2 °F 94% 30.06 in - East 3.5 mph - N/A   Clear
1:00 AM 59.0 °F 57.2 °F 94% 30.06 in - ENE 6.9 mph - N/A   Clear
2:00 AM 58 °F 56 °F 91% 30.05 in 6 mi East 3.5 mph - -  
2:00 AM 57.2 °F 55.4 °F 94% 30.04 in - East 3.5 mph - N/A   Clear
3:00 AM 57.2 °F 55.4 °F 94% 30.04 in - East 4.6 mph - N/A   Clear
4:00 AM 55.4 °F 53.6 °F 94% 30.04 in - East 5.8 mph - N/A   Clear
5:00 AM 53.6 °F 53.6 °F 100% 30.04 in 3.7 mi Calm Calm - N/A   Unknown
6:00 AM 51.8 °F 50.0 °F 94% 30.04 in 2.5 mi Calm Calm - N/A   Mist
7:00 AM 50.0 °F 48.2 °F 94% 30.06 in 1.9 mi Calm Calm - N/A   Mist
8:00 AM 51 °F 49 °F 89% 30.08 in 2 mi Calm Calm - -   Mist
8:00 AM 50.0 °F 48.2 °F 94% 30.06 in 1.9 mi Calm Calm - N/A   Mist
9:00 AM 55.4 °F 53.6 °F 94% 30.09 in 3.7 mi Calm Calm - N/A   Unknown
10:00 AM 57.2 °F 55.4 °F 94% 30.09 in 0.6 mi South 1.2 mph - N/A   Mist
11:00 AM 64.4 °F 60.8 °F 88% 30.06 in 1.9 mi Calm Calm - N/A   Mist
12:00 PM 68.0 °F 59.0 °F 73% 30.06 in - NNW 4.6 mph - N/A   Clear
1:00 PM 68.0 °F 57.2 °F 68% 30.04 in - North 5.8 mph - N/A   Clear
2:00 PM 70 °F 54 °F 47% 30.05 in 6 mi NNW 6.9 mph - -  
2:00 PM 69.8 °F 53.6 °F 56% 30.04 in - NNW 6.9 mph - N/A   Clear
3:00 PM 69.8 °F 57.2 °F 64% 30.01 in - North 3.5 mph - N/A   Clear
4:00 PM 68.0 °F 55.4 °F 64% 30.04 in - NNW 5.8 mph - N/A   Clear
5:00 PM 66.2 °F 55.4 °F 68% 30.01 in - North 4.6 mph - N/A   Clear
6:00 PM 62.6 °F 55.4 °F 77% 30.01 in - NNW 3.5 mph - N/A   Clear
7:00 PM 60.8 °F 55.4 °F 82% 30.01 in - North 2.3 mph - N/A   Clear
8:00 PM 61 °F 56 °F 77% 30.04 in 6 mi North 3.5 mph - -  
8:00 PM 60.8 °F 55.4 °F 82% 30.04 in - North 3.5 mph - N/A   Clear
9:00 PM 60.8 °F 55.4 °F 82% 30.04 in - North 2.3 mph - N/A   Clear
10:00 PM 60.8 °F 55.4 °F 82% 30.04 in - North 2.3 mph - N/A   Clear
11:05 PM 59.0 °F 55.4 °F 88% 30.04 in - North 1.2 mph - N/A   Clear